Location: Bailen
(14.1842°N, 120.7958°E)
Time: 05:01:19
(UTC+00:00)

Lacrosse 4 Rocket - Visible Passes

Search period start: 21 April 2026 00:00
Search period end: 01 May 2026 00:00
Orbit: 508 x 566 km, 68.0° (Epoch: 20 April)

Date Brightness Start Highest point End Pass type
(mag) Time Alt. Az. Time Alt. Az. Time Alt. Az.
22 Apr 4.2 19:40:38 10° ESE 19:41:43 11° ESE 19:42:48 10° E visible
22 Apr 2.4 21:16:01 10° WSW 21:19:08 24° WNW 21:22:17 10° NNW visible
23 Apr 4.0 19:31:49 13° ESE 19:32:40 14° ESE 19:34:38 10° ENE visible
23 Apr 2.7 21:07:18 10° WSW 21:10:08 20° WNW 21:13:00 10° NNW visible
24 Apr 3.9 19:24:01 16° E 19:24:01 16° E 19:26:08 10° ENE visible
24 Apr 2.9 20:59:30 13° W 21:01:09 16° WNW 21:03:37 10° NNW visible
25 Apr 4.0 19:16:05 16° ENE 19:16:05 16° ENE 19:17:28 10° ENE visible
25 Apr 3.1 20:51:33 13° WNW 20:52:09 13° WNW 20:54:06 10° NW visible
26 Apr 4.3 19:08:03 14° ENE 19:08:03 14° ENE 19:08:43 10° NE visible
26 Apr 3.4 20:43:30 11° WNW 20:43:30 11° WNW 20:44:17 10° NW visible
27 Apr 4.6 18:59:52 10° NE 18:59:52 10° NE 18:59:54 10° NE visible
